Year,Month,Day,Hour,Minute,Value (Times are PST for temperature in C)
2011,07,02,00,00,11.40
2011,07,02,00,01,11.40
2011,07,02,00,02,11.40
2011,07,02,00,03,11.40
2011,07,02,00,04,11.30
2011,07,02,00,05,11.30
2011,07,02,00,06,11.30
2011,07,02,00,07,11.30
2011,07,02,00,08,11.20
2011,07,02,00,09,11.20
2011,07,02,00,10,11.20
2011,07,02,00,11,11.20
2011,07,02,00,12,11.10
2011,07,02,00,13,11.10
2011,07,02,00,14,11.10
2011,07,02,00,15,11.10
2011,07,02,00,16,11.10
2011,07,02,00,17,11.10
2011,07,02,00,18,11.10
2011,07,02,00,19,11.10
2011,07,02,00,20,11.10
2011,07,02,00,21,11.10
2011,07,02,00,22,11.10
2011,07,02,00,23,11.10
2011,07,02,00,24,11.10
2011,07,02,00,25,11.10
2011,07,02,00,26,11.10
2011,07,02,00,27,11.10
2011,07,02,00,28,11.10
2011,07,02,00,29,11.00
2011,07,02,00,30,11.00
2011,07,02,00,31,11.00
2011,07,02,00,32,11.00
2011,07,02,00,33,10.90
2011,07,02,00,34,10.90
2011,07,02,00,35,10.90
2011,07,02,00,36,10.90
2011,07,02,00,37,10.90
2011,07,02,00,38,10.90
2011,07,02,00,39,10.90
2011,07,02,00,40,10.90
2011,07,02,00,41,10.80
2011,07,02,00,42,10.80
2011,07,02,00,43,10.80
2011,07,02,00,44,10.80
2011,07,02,00,45,10.80
2011,07,02,00,46,10.80
2011,07,02,00,47,10.80
2011,07,02,00,48,10.70
2011,07,02,00,49,10.70
2011,07,02,00,50,10.70
2011,07,02,00,51,10.70
2011,07,02,00,52,10.70
2011,07,02,00,53,10.70
2011,07,02,00,54,10.60
2011,07,02,00,55,10.60
2011,07,02,00,56,10.60
2011,07,02,00,57,10.60
2011,07,02,00,58,10.60
2011,07,02,00,59,10.60
2011,07,02,01,00,10.60
2011,07,02,01,01,10.60
2011,07,02,01,02,10.60
2011,07,02,01,03,10.60
2011,07,02,01,04,10.60
2011,07,02,01,05,10.60
2011,07,02,01,06,10.60
2011,07,02,01,07,10.60
2011,07,02,01,08,10.60
2011,07,02,01,09,10.60
2011,07,02,01,10,10.60
2011,07,02,01,11,10.60
2011,07,02,01,12,10.50
2011,07,02,01,13,10.50
2011,07,02,01,14,10.50
2011,07,02,01,15,10.40
2011,07,02,01,16,10.40
2011,07,02,01,17,10.30
2011,07,02,01,18,10.30
2011,07,02,01,19,10.30
2011,07,02,01,20,10.30
2011,07,02,01,21,10.20
2011,07,02,01,22,10.20
2011,07,02,01,23,10.20
2011,07,02,01,24,10.20
2011,07,02,01,25,10.20
2011,07,02,01,26,10.20
2011,07,02,01,27,10.20
2011,07,02,01,28,10.20
2011,07,02,01,29,10.20
2011,07,02,01,30,10.20
2011,07,02,01,31,10.20
2011,07,02,01,32,10.20
2011,07,02,01,33,10.20
2011,07,02,01,34,10.20
2011,07,02,01,35,10.20
2011,07,02,01,36,10.10
2011,07,02,01,37,10.10
2011,07,02,01,38,10.10
2011,07,02,01,39,10.10
2011,07,02,01,40,10.10
2011,07,02,01,41,10.10
2011,07,02,01,42,10.10
2011,07,02,01,43,10.10
2011,07,02,01,44,10.10
2011,07,02,01,45,10.10
2011,07,02,01,46,10.10
2011,07,02,01,47,10.00
2011,07,02,01,48,10.00
2011,07,02,01,49,10.00
2011,07,02,01,50,9.90
2011,07,02,01,51,9.90
2011,07,02,01,52,9.90
2011,07,02,01,53,9.90
2011,07,02,01,54,9.80
2011,07,02,01,55,9.80
2011,07,02,01,56,9.80
2011,07,02,01,57,9.80
2011,07,02,01,58,9.80
2011,07,02,01,59,9.80
2011,07,02,02,00,9.80
2011,07,02,02,01,9.80
2011,07,02,02,02,9.80
2011,07,02,02,03,9.80
2011,07,02,02,04,9.70
2011,07,02,02,05,9.70
2011,07,02,02,06,9.80
2011,07,02,02,07,9.80
2011,07,02,02,08,9.80
2011,07,02,02,09,9.80
2011,07,02,02,10,9.80
2011,07,02,02,11,9.80
2011,07,02,02,12,9.80
2011,07,02,02,13,9.80
2011,07,02,02,14,9.80
2011,07,02,02,15,9.80
2011,07,02,02,16,9.80
2011,07,02,02,17,9.70
2011,07,02,02,18,9.70
2011,07,02,02,19,9.70
2011,07,02,02,20,9.70
2011,07,02,02,21,9.70
2011,07,02,02,22,9.70
2011,07,02,02,23,9.70
2011,07,02,02,24,9.70
2011,07,02,02,25,9.70
2011,07,02,02,26,9.70
2011,07,02,02,27,9.60
2011,07,02,02,28,9.60
2011,07,02,02,29,9.60
2011,07,02,02,30,9.60
2011,07,02,02,31,9.60
2011,07,02,02,32,9.60
2011,07,02,02,33,9.60
2011,07,02,02,34,9.60
2011,07,02,02,35,9.60
2011,07,02,02,36,9.60
2011,07,02,02,37,9.60
2011,07,02,02,38,9.60
2011,07,02,02,39,9.60
2011,07,02,02,40,9.60
2011,07,02,02,41,9.60
2011,07,02,02,42,9.60
2011,07,02,02,43,9.60
2011,07,02,02,44,9.50
2011,07,02,02,45,9.50
2011,07,02,02,46,9.40
2011,07,02,02,47,9.40
2011,07,02,02,48,9.40
2011,07,02,02,49,9.40
2011,07,02,02,50,9.40
2011,07,02,02,51,9.40
2011,07,02,02,52,9.40
2011,07,02,02,53,9.40
2011,07,02,02,54,9.40
2011,07,02,02,55,9.30
2011,07,02,02,56,9.30
2011,07,02,02,57,9.30
2011,07,02,02,58,9.30
2011,07,02,02,59,9.30
2011,07,02,03,00,9.30
2011,07,02,03,01,9.30
2011,07,02,03,02,9.30
2011,07,02,03,03,9.30
2011,07,02,03,04,9.30
2011,07,02,03,05,9.30
2011,07,02,03,06,9.30
2011,07,02,03,07,9.30
2011,07,02,03,08,9.30
2011,07,02,03,09,9.30
2011,07,02,03,10,9.30
2011,07,02,03,11,9.30
2011,07,02,03,12,9.30
2011,07,02,03,13,9.30
2011,07,02,03,14,9.30
2011,07,02,03,15,9.30
2011,07,02,03,16,9.20
2011,07,02,03,17,9.20
2011,07,02,03,18,9.20
2011,07,02,03,19,9.20
2011,07,02,03,20,9.20
2011,07,02,03,21,9.20
2011,07,02,03,22,9.20
2011,07,02,03,23,9.20
2011,07,02,03,24,9.20
2011,07,02,03,25,9.20
2011,07,02,03,26,9.20
2011,07,02,03,27,9.20
2011,07,02,03,28,9.20
2011,07,02,03,29,9.20
2011,07,02,03,30,9.20
2011,07,02,03,31,9.20
2011,07,02,03,32,9.20
2011,07,02,03,33,9.20
2011,07,02,03,34,9.20
2011,07,02,03,35,9.20
2011,07,02,03,36,9.10
2011,07,02,03,37,9.10
2011,07,02,03,38,9.10
2011,07,02,03,39,9.10
2011,07,02,03,40,9.10
2011,07,02,03,41,9.10
2011,07,02,03,42,9.10
2011,07,02,03,43,9.10
2011,07,02,03,44,9.10
2011,07,02,03,45,9.10
2011,07,02,03,46,9.10
2011,07,02,03,47,9.10
2011,07,02,03,48,9.10
2011,07,02,03,49,9.10
2011,07,02,03,50,9.10
2011,07,02,03,51,9.10
2011,07,02,03,52,9.10
2011,07,02,03,53,9.10
2011,07,02,03,54,9.10
2011,07,02,03,55,9.10
2011,07,02,03,56,9.00
2011,07,02,03,57,9.00
2011,07,02,03,58,9.00
2011,07,02,03,59,9.00
2011,07,02,04,00,9.00
2011,07,02,04,01,9.00
2011,07,02,04,02,9.00
2011,07,02,04,03,8.90
2011,07,02,04,04,8.90
2011,07,02,04,05,8.90
2011,07,02,04,06,8.90
2011,07,02,04,07,8.90
2011,07,02,04,08,8.90
2011,07,02,04,09,8.90
2011,07,02,04,10,8.80
2011,07,02,04,11,8.80
2011,07,02,04,12,8.80
2011,07,02,04,13,8.80
2011,07,02,04,14,8.80
2011,07,02,04,15,8.80
2011,07,02,04,16,8.80
2011,07,02,04,17,8.80
2011,07,02,04,18,8.80
2011,07,02,04,19,8.80
2011,07,02,04,20,8.80
2011,07,02,04,21,8.80
2011,07,02,04,22,8.80
2011,07,02,04,23,8.80
2011,07,02,04,24,8.80
2011,07,02,04,25,8.80
2011,07,02,04,26,8.80
2011,07,02,04,27,8.80
2011,07,02,04,28,8.80
2011,07,02,04,29,8.80
2011,07,02,04,30,8.80
2011,07,02,04,31,8.80
2011,07,02,04,32,8.80
2011,07,02,04,33,8.80
2011,07,02,04,34,8.80
2011,07,02,04,35,8.80
2011,07,02,04,36,8.80
2011,07,02,04,37,8.70
2011,07,02,04,38,8.70
2011,07,02,04,39,8.70
2011,07,02,04,40,8.70
2011,07,02,04,41,8.70
2011,07,02,04,42,8.70
2011,07,02,04,43,8.70
2011,07,02,04,44,8.70
2011,07,02,04,45,8.70
2011,07,02,04,46,8.70
2011,07,02,04,47,8.70
2011,07,02,04,48,8.70
2011,07,02,04,49,8.70
2011,07,02,04,50,8.70
2011,07,02,04,51,8.70
2011,07,02,04,52,8.70
2011,07,02,04,53,8.70
2011,07,02,04,54,8.70
2011,07,02,04,55,8.70
2011,07,02,04,56,8.70
2011,07,02,04,57,8.70
2011,07,02,04,58,8.70
2011,07,02,04,59,8.70
2011,07,02,05,00,8.70
2011,07,02,05,01,8.70
2011,07,02,05,02,8.70
2011,07,02,05,03,8.70
2011,07,02,05,04,8.70
2011,07,02,05,05,8.70
2011,07,02,05,06,8.70
2011,07,02,05,07,8.70
2011,07,02,05,08,8.70
2011,07,02,05,09,8.70
2011,07,02,05,10,8.70
2011,07,02,05,11,8.70
2011,07,02,05,12,8.70
2011,07,02,05,13,8.70
2011,07,02,05,14,8.70
2011,07,02,05,15,8.70
2011,07,02,05,16,8.70
2011,07,02,05,17,8.70
2011,07,02,05,18,8.70
2011,07,02,05,19,8.70
2011,07,02,05,20,8.70
2011,07,02,05,21,8.70
2011,07,02,05,22,8.70
2011,07,02,05,23,8.70
2011,07,02,05,24,8.70
2011,07,02,05,25,8.70
2011,07,02,05,26,8.70
2011,07,02,05,27,8.70
2011,07,02,05,28,8.70
2011,07,02,05,29,8.70
2011,07,02,05,30,8.70
2011,07,02,05,31,8.70
2011,07,02,05,32,8.70
2011,07,02,05,33,8.70
2011,07,02,05,34,8.70
2011,07,02,05,35,8.70
2011,07,02,05,36,8.70
2011,07,02,05,37,8.70
2011,07,02,05,38,8.70
2011,07,02,05,39,8.70
2011,07,02,05,40,8.70
2011,07,02,05,41,8.70
2011,07,02,05,42,8.70
2011,07,02,05,43,8.70
2011,07,02,05,44,8.70
2011,07,02,05,45,8.70
2011,07,02,05,46,8.70
2011,07,02,05,47,8.70
2011,07,02,05,48,8.70
2011,07,02,05,49,8.70
2011,07,02,05,50,8.70
2011,07,02,05,51,8.70
2011,07,02,05,52,8.70
2011,07,02,05,53,8.70
2011,07,02,05,54,8.70
2011,07,02,05,55,8.70
2011,07,02,05,56,8.70
2011,07,02,05,57,8.70
2011,07,02,05,58,8.80
2011,07,02,05,59,8.80
2011,07,02,06,00,8.80
2011,07,02,06,01,8.80
2011,07,02,06,02,8.80
2011,07,02,06,03,8.80
2011,07,02,06,04,8.80
2011,07,02,06,05,8.80
2011,07,02,06,06,8.80
2011,07,02,06,07,8.80
2011,07,02,06,08,8.80
2011,07,02,06,09,8.80
2011,07,02,06,10,8.80
2011,07,02,06,11,8.80
2011,07,02,06,12,8.80
2011,07,02,06,13,8.80
2011,07,02,06,14,8.80
2011,07,02,06,15,8.80
2011,07,02,06,16,8.90
2011,07,02,06,17,8.90
2011,07,02,06,18,8.90
2011,07,02,06,19,8.90
2011,07,02,06,20,8.90
2011,07,02,06,21,8.90
2011,07,02,06,22,8.90
2011,07,02,06,23,8.90
2011,07,02,06,24,8.90
2011,07,02,06,25,9.00
2011,07,02,06,26,9.00
2011,07,02,06,27,9.00
2011,07,02,06,28,9.10
2011,07,02,06,29,9.10
2011,07,02,06,30,9.10
2011,07,02,06,31,9.10
2011,07,02,06,32,9.10
2011,07,02,06,33,9.10
2011,07,02,06,34,9.20
2011,07,02,06,35,9.20
2011,07,02,06,36,9.20
2011,07,02,06,37,9.20
2011,07,02,06,38,9.30
2011,07,02,06,39,9.30
2011,07,02,06,40,9.30
2011,07,02,06,41,9.40
2011,07,02,06,42,9.40
2011,07,02,06,43,9.40
2011,07,02,06,44,9.50
2011,07,02,06,45,9.50
2011,07,02,06,46,9.60
2011,07,02,06,47,9.60
2011,07,02,06,48,9.70
2011,07,02,06,49,9.70
2011,07,02,06,50,9.70
2011,07,02,06,51,9.80
2011,07,02,06,52,9.80
2011,07,02,06,53,9.90
2011,07,02,06,54,9.90
2011,07,02,06,55,10.00
2011,07,02,06,56,10.10
2011,07,02,06,57,10.10
2011,07,02,06,58,10.20
2011,07,02,06,59,10.30
2011,07,02,07,00,10.40
2011,07,02,07,01,10.50
2011,07,02,07,02,10.60
2011,07,02,07,03,10.70
2011,07,02,07,04,10.80
2011,07,02,07,05,10.80
2011,07,02,07,06,10.90
2011,07,02,07,07,11.00
2011,07,02,07,08,11.10
2011,07,02,07,09,11.20
2011,07,02,07,10,11.30
2011,07,02,07,11,11.30
2011,07,02,07,12,11.40
2011,07,02,07,13,11.50
2011,07,02,07,14,11.50
2011,07,02,07,15,11.60
2011,07,02,07,16,11.70
2011,07,02,07,17,11.70
2011,07,02,07,18,11.80
2011,07,02,07,19,11.90
2011,07,02,07,20,12.00
2011,07,02,07,21,12.10
2011,07,02,07,22,12.20
2011,07,02,07,23,12.30
2011,07,02,07,24,12.30
2011,07,02,07,25,12.40
2011,07,02,07,26,12.50
2011,07,02,07,27,12.60
2011,07,02,07,28,12.70
2011,07,02,07,29,12.70
2011,07,02,07,30,12.70
2011,07,02,07,31,12.70
2011,07,02,07,32,12.60
2011,07,02,07,33,12.60
2011,07,02,07,34,12.60
2011,07,02,07,35,12.50
2011,07,02,07,36,12.50
2011,07,02,07,37,12.50
2011,07,02,07,38,12.50
2011,07,02,07,39,12.50
2011,07,02,07,40,12.50
2011,07,02,07,41,12.60
2011,07,02,07,42,12.60
2011,07,02,07,43,12.70
2011,07,02,07,44,12.80
2011,07,02,07,45,12.80
2011,07,02,07,46,12.90
2011,07,02,07,47,13.10
2011,07,02,07,48,13.20
2011,07,02,07,49,13.30
2011,07,02,07,50,13.40
2011,07,02,07,51,13.50
2011,07,02,07,52,13.60
2011,07,02,07,53,13.70
2011,07,02,07,54,13.80
2011,07,02,07,55,13.90
2011,07,02,07,56,14.00
2011,07,02,07,57,14.10
2011,07,02,07,58,14.20
2011,07,02,07,59,14.40
2011,07,02,08,00,14.50
2011,07,02,08,01,14.60
2011,07,02,08,02,14.60
2011,07,02,08,03,14.70
2011,07,02,08,04,14.80
2011,07,02,08,05,14.80
2011,07,02,08,06,14.90
2011,07,02,08,07,14.90
2011,07,02,08,08,15.00
2011,07,02,08,09,15.00
2011,07,02,08,10,15.00
2011,07,02,08,11,15.00
2011,07,02,08,12,15.00
2011,07,02,08,13,15.10
2011,07,02,08,14,15.20
2011,07,02,08,15,15.20
2011,07,02,08,16,15.30
2011,07,02,08,17,15.40
2011,07,02,08,18,15.40
2011,07,02,08,19,15.50
2011,07,02,08,20,15.50
2011,07,02,08,21,15.60
2011,07,02,08,22,15.60
2011,07,02,08,23,15.70
2011,07,02,08,24,15.70
2011,07,02,08,25,15.70
2011,07,02,08,26,15.70
2011,07,02,08,27,15.80
2011,07,02,08,28,15.80
2011,07,02,08,29,15.90
2011,07,02,08,30,15.90
2011,07,02,08,31,16.00
2011,07,02,08,32,16.10
2011,07,02,08,33,16.10
2011,07,02,08,34,16.20
2011,07,02,08,35,16.20
2011,07,02,08,36,16.20
2011,07,02,08,37,16.20
2011,07,02,08,38,16.20
2011,07,02,08,39,16.20
2011,07,02,08,40,16.10
2011,07,02,08,41,16.10
2011,07,02,08,42,16.10
2011,07,02,08,43,16.20
2011,07,02,08,44,16.20
2011,07,02,08,45,16.20
2011,07,02,08,46,16.20
2011,07,02,08,47,16.20
2011,07,02,08,48,16.30
2011,07,02,08,49,16.30
2011,07,02,08,50,16.40
2011,07,02,08,51,16.40
2011,07,02,08,52,16.50
2011,07,02,08,53,16.50
2011,07,02,08,54,16.60
2011,07,02,08,55,16.60
2011,07,02,08,56,16.60
2011,07,02,08,57,16.60
2011,07,02,08,58,16.50
2011,07,02,08,59,16.50
2011,07,02,09,00,16.40
2011,07,02,09,01,16.40
2011,07,02,09,02,16.30
2011,07,02,09,03,16.30
2011,07,02,09,04,16.30
2011,07,02,09,05,16.30
2011,07,02,09,06,16.20
2011,07,02,09,07,16.20
2011,07,02,09,08,16.10
2011,07,02,09,09,16.10
2011,07,02,09,10,16.00
2011,07,02,09,11,15.90
2011,07,02,09,12,15.80
2011,07,02,09,13,15.80
2011,07,02,09,14,15.80
2011,07,02,09,15,15.70
2011,07,02,09,16,15.70
2011,07,02,09,17,15.70
2011,07,02,09,18,15.70
2011,07,02,09,19,15.70
2011,07,02,09,20,15.70
2011,07,02,09,21,15.70
2011,07,02,09,22,15.80
2011,07,02,09,23,15.80
2011,07,02,09,24,15.90
2011,07,02,09,25,16.00
2011,07,02,09,26,16.00
2011,07,02,09,27,16.10
2011,07,02,09,28,16.10
2011,07,02,09,29,16.20
2011,07,02,09,30,16.20
2011,07,02,09,31,16.30
2011,07,02,09,32,16.30
2011,07,02,09,33,16.30
2011,07,02,09,34,16.30
2011,07,02,09,35,16.30
2011,07,02,09,36,16.40
2011,07,02,09,37,16.40
2011,07,02,09,38,16.40
2011,07,02,09,39,16.40
2011,07,02,09,40,16.50
2011,07,02,09,41,16.50
2011,07,02,09,42,16.50
2011,07,02,09,43,16.50
2011,07,02,09,44,16.60
2011,07,02,09,45,16.60
2011,07,02,09,46,16.60
2011,07,02,09,47,16.60
2011,07,02,09,48,16.70
2011,07,02,09,49,16.70
2011,07,02,09,50,16.70
2011,07,02,09,51,16.80
2011,07,02,09,52,16.80
2011,07,02,09,53,16.90
2011,07,02,09,54,16.90
2011,07,02,09,55,16.90
2011,07,02,09,56,16.90
2011,07,02,09,57,17.00
2011,07,02,09,58,17.00
2011,07,02,09,59,17.10
2011,07,02,10,00,17.20
2011,07,02,10,01,17.20
2011,07,02,10,02,17.20
2011,07,02,10,03,17.20
2011,07,02,10,04,17.20
2011,07,02,10,05,17.20
2011,07,02,10,06,17.20
2011,07,02,10,07,17.20
2011,07,02,10,08,17.30
2011,07,02,10,09,17.30
2011,07,02,10,10,17.40
2011,07,02,10,11,17.40
2011,07,02,10,12,17.50
2011,07,02,10,13,17.50
2011,07,02,10,14,17.50
2011,07,02,10,15,17.50
2011,07,02,10,16,17.60
2011,07,02,10,17,17.60
2011,07,02,10,18,17.70
2011,07,02,10,19,17.70
2011,07,02,10,20,17.70
2011,07,02,10,21,17.70
2011,07,02,10,22,17.80
2011,07,02,10,23,17.80
2011,07,02,10,24,17.90
2011,07,02,10,25,18.00
2011,07,02,10,26,18.10
2011,07,02,10,27,18.10
2011,07,02,10,28,18.20
2011,07,02,10,29,18.30
2011,07,02,10,30,18.30
2011,07,02,10,31,18.30
2011,07,02,10,32,18.30
2011,07,02,10,33,18.30
2011,07,02,10,34,18.40
2011,07,02,10,35,18.40
2011,07,02,10,36,18.40
2011,07,02,10,37,18.50
2011,07,02,10,38,18.50
2011,07,02,10,39,18.50
2011,07,02,10,40,18.60
2011,07,02,10,41,18.60
2011,07,02,10,42,18.60
2011,07,02,10,43,18.60
2011,07,02,10,44,18.70
2011,07,02,10,45,18.70
2011,07,02,10,46,18.80
2011,07,02,10,47,18.90
2011,07,02,10,48,19.00
2011,07,02,10,49,19.10
2011,07,02,10,50,19.20
2011,07,02,10,51,19.20
2011,07,02,10,52,19.20
2011,07,02,10,53,19.20
2011,07,02,10,54,19.20
2011,07,02,10,55,19.10
2011,07,02,10,56,19.10
2011,07,02,10,57,19.10
2011,07,02,10,58,19.10
2011,07,02,10,59,19.10
2011,07,02,11,00,19.20
2011,07,02,11,01,19.20
2011,07,02,11,02,19.30
2011,07,02,11,03,19.30
2011,07,02,11,04,19.40
2011,07,02,11,05,19.40
2011,07,02,11,06,19.40
2011,07,02,11,07,19.50
2011,07,02,11,08,19.50
2011,07,02,11,09,19.50
2011,07,02,11,10,19.60
2011,07,02,11,11,19.70
2011,07,02,11,12,19.60
2011,07,02,11,13,19.60
2011,07,02,11,14,19.60
2011,07,02,11,15,19.60
2011,07,02,11,16,19.60
2011,07,02,11,17,19.50
2011,07,02,11,18,19.50
2011,07,02,11,19,19.50
2011,07,02,11,20,19.50
2011,07,02,11,21,19.50
2011,07,02,11,22,19.60
2011,07,02,11,23,19.60
2011,07,02,11,24,19.60
2011,07,02,11,25,19.60
2011,07,02,11,26,19.60
2011,07,02,11,27,19.60
2011,07,02,11,28,19.60
2011,07,02,11,29,19.70
2011,07,02,11,30,19.70
2011,07,02,11,31,19.80
2011,07,02,11,32,19.90
2011,07,02,11,33,19.90
2011,07,02,11,34,20.00
2011,07,02,11,35,20.00
2011,07,02,11,36,20.10
2011,07,02,11,37,20.20
2011,07,02,11,38,20.30
2011,07,02,11,39,20.40
2011,07,02,11,40,20.40
2011,07,02,11,41,20.50
2011,07,02,11,42,20.60
2011,07,02,11,43,20.70
2011,07,02,11,44,20.80
2011,07,02,11,45,20.80
2011,07,02,11,46,20.90
2011,07,02,11,47,21.00
2011,07,02,11,48,21.10
2011,07,02,11,49,21.10
2011,07,02,11,50,21.20
2011,07,02,11,51,21.20
2011,07,02,11,52,21.20
2011,07,02,11,53,21.10
2011,07,02,11,54,21.10
2011,07,02,11,55,21.00
2011,07,02,11,56,21.00
2011,07,02,11,57,21.00
2011,07,02,11,58,20.90
2011,07,02,11,59,20.80
2011,07,02,12,00,20.80
2011,07,02,12,01,20.80
2011,07,02,12,02,20.80
2011,07,02,12,03,20.80
2011,07,02,12,04,20.90
2011,07,02,12,05,21.00
2011,07,02,12,06,21.00
2011,07,02,12,07,21.10
2011,07,02,12,08,21.10
2011,07,02,12,09,21.10
2011,07,02,12,10,21.10
2011,07,02,12,11,21.10
2011,07,02,12,12,21.00
2011,07,02,12,13,20.90
2011,07,02,12,14,20.80
2011,07,02,12,15,20.80
2011,07,02,12,16,20.80
2011,07,02,12,17,20.90
2011,07,02,12,18,20.90
2011,07,02,12,19,21.00
2011,07,02,12,20,21.10
2011,07,02,12,21,21.20
2011,07,02,12,22,21.20
2011,07,02,12,23,21.20
2011,07,02,12,24,21.20
2011,07,02,12,25,21.10
2011,07,02,12,26,21.10
2011,07,02,12,27,21.00
2011,07,02,12,28,21.00
2011,07,02,12,29,21.00
2011,07,02,12,30,21.10
2011,07,02,12,31,21.20
2011,07,02,12,32,21.20
2011,07,02,12,33,21.30
2011,07,02,12,34,21.20
2011,07,02,12,35,21.20
2011,07,02,12,36,21.20
2011,07,02,12,37,21.10
2011,07,02,12,38,21.10
2011,07,02,12,39,21.10
2011,07,02,12,40,21.10
2011,07,02,12,41,21.10
2011,07,02,12,42,21.00
2011,07,02,12,43,21.00
2011,07,02,12,44,21.00
2011,07,02,12,45,21.00
2011,07,02,12,46,21.00
2011,07,02,12,47,21.00
2011,07,02,12,48,21.00
2011,07,02,12,49,21.10
2011,07,02,12,50,21.10
2011,07,02,12,51,21.20
2011,07,02,12,52,21.20
2011,07,02,12,53,21.10
2011,07,02,12,54,21.10
2011,07,02,12,55,21.10
2011,07,02,12,56,21.20
2011,07,02,12,57,21.20
2011,07,02,12,58,21.20
2011,07,02,12,59,21.20
2011,07,02,13,00,21.20
2011,07,02,13,01,21.20
2011,07,02,13,02,21.20
2011,07,02,13,03,21.30
2011,07,02,13,04,21.30
2011,07,02,13,05,21.30
2011,07,02,13,06,21.40
2011,07,02,13,07,21.40
2011,07,02,13,08,21.40
2011,07,02,13,09,21.40
2011,07,02,13,10,21.40
2011,07,02,13,11,21.40
2011,07,02,13,12,21.40
2011,07,02,13,13,21.30
2011,07,02,13,14,21.20
2011,07,02,13,15,21.20
2011,07,02,13,16,21.10
2011,07,02,13,17,21.10
2011,07,02,13,18,21.10
2011,07,02,13,19,21.20
2011,07,02,13,20,21.20
2011,07,02,13,21,21.30
2011,07,02,13,22,21.40
2011,07,02,13,23,21.40
2011,07,02,13,24,21.40
2011,07,02,13,25,21.50
2011,07,02,13,26,21.50
2011,07,02,13,27,21.60
2011,07,02,13,28,21.60
2011,07,02,13,29,21.60
2011,07,02,13,30,21.50
2011,07,02,13,31,21.40
2011,07,02,13,32,21.30
2011,07,02,13,33,21.30
2011,07,02,13,34,21.30
2011,07,02,13,35,21.30
2011,07,02,13,36,21.30
2011,07,02,13,37,21.40
2011,07,02,13,38,21.40
2011,07,02,13,39,21.40
2011,07,02,13,40,21.40
2011,07,02,13,41,21.50
2011,07,02,13,42,21.50
2011,07,02,13,43,21.60
2011,07,02,13,44,21.60
2011,07,02,13,45,21.60
2011,07,02,13,46,21.60
2011,07,02,13,47,21.50
2011,07,02,13,48,21.50
2011,07,02,13,49,21.50
2011,07,02,13,50,21.40
2011,07,02,13,51,21.30
2011,07,02,13,52,21.30
2011,07,02,13,53,21.30
2011,07,02,13,54,21.30
2011,07,02,13,55,21.30
2011,07,02,13,56,21.30
2011,07,02,13,57,21.30
2011,07,02,13,58,21.40
2011,07,02,13,59,21.50
2011,07,02,14,00,21.50
2011,07,02,14,01,21.60
2011,07,02,14,02,21.50
2011,07,02,14,03,21.50
2011,07,02,14,04,21.50
2011,07,02,14,05,21.60
2011,07,02,14,06,21.60
2011,07,02,14,07,21.70
2011,07,02,14,08,21.70
2011,07,02,14,09,21.70
2011,07,02,14,10,21.60
2011,07,02,14,11,21.60
2011,07,02,14,12,21.60
2011,07,02,14,13,21.70
2011,07,02,14,14,21.70
2011,07,02,14,15,21.80
2011,07,02,14,16,21.80
2011,07,02,14,17,21.80
2011,07,02,14,18,21.80
2011,07,02,14,19,21.80
2011,07,02,14,20,21.70
2011,07,02,14,21,21.70
2011,07,02,14,22,21.70
2011,07,02,14,23,21.70
2011,07,02,14,24,21.70
2011,07,02,14,25,21.70
2011,07,02,14,26,21.60
2011,07,02,14,27,21.60
2011,07,02,14,28,21.50
2011,07,02,14,29,21.50
2011,07,02,14,30,21.50
2011,07,02,14,31,21.50
2011,07,02,14,32,21.50
2011,07,02,14,33,21.60
2011,07,02,14,34,21.60
2011,07,02,14,35,21.70
2011,07,02,14,36,21.80
2011,07,02,14,37,21.80
2011,07,02,14,38,21.70
2011,07,02,14,39,21.80
2011,07,02,14,40,21.80
2011,07,02,14,41,21.80
2011,07,02,14,42,21.90
2011,07,02,14,43,22.00
2011,07,02,14,44,22.10
2011,07,02,14,45,22.10
2011,07,02,14,46,22.20
2011,07,02,14,47,22.20
2011,07,02,14,48,22.30
2011,07,02,14,49,22.40
2011,07,02,14,50,22.40
2011,07,02,14,51,22.40
2011,07,02,14,52,22.50
2011,07,02,14,53,22.50
2011,07,02,14,54,22.50
2011,07,02,14,55,22.50
2011,07,02,14,56,22.40
2011,07,02,14,57,22.40
2011,07,02,14,58,22.40
2011,07,02,14,59,22.40
2011,07,02,15,00,22.40
2011,07,02,15,01,22.40
2011,07,02,15,02,22.40
2011,07,02,15,03,22.50
2011,07,02,15,04,22.50
2011,07,02,15,05,22.50
2011,07,02,15,06,22.60
2011,07,02,15,07,22.60
2011,07,02,15,08,22.60
2011,07,02,15,09,22.70
2011,07,02,15,10,22.70
2011,07,02,15,11,22.70
2011,07,02,15,12,22.70
2011,07,02,15,13,22.80
2011,07,02,15,14,22.80
2011,07,02,15,15,22.90
2011,07,02,15,16,23.00
2011,07,02,15,17,23.10
2011,07,02,15,18,23.10
2011,07,02,15,19,23.20
2011,07,02,15,20,23.30
2011,07,02,15,21,23.40
2011,07,02,15,22,23.40
2011,07,02,15,23,23.60
2011,07,02,15,24,23.60
2011,07,02,15,25,23.60
2011,07,02,15,26,23.60
2011,07,02,15,27,23.60
2011,07,02,15,28,23.70
2011,07,02,15,29,23.80
2011,07,02,15,30,23.90
2011,07,02,15,31,24.00
2011,07,02,15,32,24.00
2011,07,02,15,33,24.10
2011,07,02,15,34,24.20
2011,07,02,15,35,24.30
2011,07,02,15,36,24.30
2011,07,02,15,37,24.30
2011,07,02,15,38,24.20
2011,07,02,15,39,24.20
2011,07,02,15,40,24.20
2011,07,02,15,41,24.20
2011,07,02,15,42,24.10
2011,07,02,15,43,24.20
2011,07,02,15,44,24.20
2011,07,02,15,45,24.30
2011,07,02,15,46,24.30
2011,07,02,15,47,24.40
2011,07,02,15,48,24.50
2011,07,02,15,49,24.50
2011,07,02,15,50,24.40
2011,07,02,15,51,24.40
2011,07,02,15,52,24.50
2011,07,02,15,53,24.50
2011,07,02,15,54,24.60
2011,07,02,15,55,24.70
2011,07,02,15,56,24.70
2011,07,02,15,57,24.70
2011,07,02,15,58,24.80
2011,07,02,15,59,24.80
2011,07,02,16,00,24.90
2011,07,02,16,01,25.00
2011,07,02,16,02,25.10
2011,07,02,16,03,25.20
2011,07,02,16,04,25.30
2011,07,02,16,05,25.30
2011,07,02,16,06,25.40
2011,07,02,16,07,25.40
2011,07,02,16,08,25.30
2011,07,02,16,09,25.20
2011,07,02,16,10,25.10
2011,07,02,16,11,24.90
2011,07,02,16,12,24.90
2011,07,02,16,13,24.80
2011,07,02,16,14,24.80
2011,07,02,16,15,24.80
2011,07,02,16,16,24.80
2011,07,02,16,17,24.80
2011,07,02,16,18,24.70
2011,07,02,16,19,24.70
2011,07,02,16,20,24.70
2011,07,02,16,21,24.70
2011,07,02,16,22,24.70
2011,07,02,16,23,24.70
2011,07,02,16,24,24.70
2011,07,02,16,25,24.70
2011,07,02,16,26,24.70
2011,07,02,16,27,24.80
2011,07,02,16,28,24.80
2011,07,02,16,29,24.80
2011,07,02,16,30,24.80
2011,07,02,16,31,24.80
2011,07,02,16,32,24.90
2011,07,02,16,33,24.90
2011,07,02,16,34,25.00
2011,07,02,16,35,25.00
2011,07,02,16,36,25.10
2011,07,02,16,37,25.00
2011,07,02,16,38,25.00
2011,07,02,16,39,24.90
2011,07,02,16,40,24.80
2011,07,02,16,41,24.80
2011,07,02,16,42,24.70
2011,07,02,16,43,24.70
2011,07,02,16,44,24.50
2011,07,02,16,45,24.30
2011,07,02,16,46,24.10
2011,07,02,16,47,23.80
2011,07,02,16,48,23.50
2011,07,02,16,49,23.30
2011,07,02,16,50,23.20
2011,07,02,16,51,23.20
2011,07,02,16,52,23.20
2011,07,02,16,53,23.30
2011,07,02,16,54,23.40
2011,07,02,16,55,23.40
2011,07,02,16,56,23.60
2011,07,02,16,57,23.70
2011,07,02,16,58,23.80
2011,07,02,16,59,24.00
2011,07,02,17,00,24.10
2011,07,02,17,01,24.20
2011,07,02,17,02,24.30
2011,07,02,17,03,24.30
2011,07,02,17,04,24.40
2011,07,02,17,05,24.40
2011,07,02,17,06,24.40
2011,07,02,17,07,24.30
2011,07,02,17,08,24.30
2011,07,02,17,09,24.30
2011,07,02,17,10,24.30
2011,07,02,17,11,24.30
2011,07,02,17,12,24.40
2011,07,02,17,13,24.40
2011,07,02,17,14,24.40
2011,07,02,17,15,24.40
2011,07,02,17,16,24.40
2011,07,02,17,17,24.30
2011,07,02,17,18,24.30
2011,07,02,17,19,24.30
2011,07,02,17,20,24.20
2011,07,02,17,21,24.20
2011,07,02,17,22,24.20
2011,07,02,17,23,24.20
2011,07,02,17,24,24.20
2011,07,02,17,25,24.20
2011,07,02,17,26,24.20
2011,07,02,17,27,24.20
2011,07,02,17,28,24.30
2011,07,02,17,29,24.30
2011,07,02,17,30,24.30
2011,07,02,17,31,24.30
2011,07,02,17,32,24.30